[Iaude] MPEC T12: 2023 TD [a=0.96,e=0.29,i=2.4,H=27.1]

mpec at marsden.cfa.harvard.edu mpec at marsden.cfa.harvard.edu
Wed Oct 4 07:51:05 EDT 2023


M.P.E.C. 2023-T12                               Issued 2023 October 4, 11:49 UT

     The Minor Planet Electronic Circulars contain information on unusual
         minor planets, routine data on comets and natural satellites,
         and occasional editorial announcements.  They are published
    on behalf of Division F of the International Astronomical Union by the
          Minor Planet Center, Smithsonian Astrophysical Observatory,
                          Cambridge, MA 02138, U.S.A.
			  
             Prepared using the Tamkin Foundation Computer Network

                              MPC at CFA.HARVARD.EDU
            URL https://www.minorplanetcenter.net/    ISSN 1523-6714

                                    2023 TD                                     


Observations:
     K23T00D*1C2023 10 03.26882623 28 14.920-05 55 19.60               VET012703
     K23T00D 1C2023 10 03.27991823 27 35.730-05 57 10.10         18.15GVET012703
     K23T00D 1C2023 10 03.28546023 27 15.860-05 58 06.00         18.24GVET012703
     K23T00D mC2023 10 03.30748023 25 56.845-06 01 46.52         18.20GVET012I52
     K23T00D mC2023 10 03.30761523 25 56.359-06 01 47.82         18.13GVET012I52
     K23T00D mC2023 10 03.30775623 25 55.852-06 01 48.97               VET012I52
     K23T00D mC2023 10 03.30789223 25 55.348-06 01 50.56               VET012I52
     K23T00D mC2023 10 03.36375323 22 30.994-06 11 16.01         17.97GVET012I52
     K23T00D mC2023 10 03.36388823 22 30.475-06 11 17.41         17.98GVET012I52
     K23T00D mC2023 10 03.36402323 22 30.000-06 11 18.78         17.76GVET012I52
     K23T00D mC2023 10 03.36415823 22 29.471-06 11 20.26         17.81GVET012I52
     K23T00D KC2023 10 03.76910 22 56 17.57 -07 34 11.0          18.6 GXET012G02
     K23T00D KC2023 10 03.77170 22 56 04.88 -07 34 46.6          18.4 GXET012G02
     K23T00D KC2023 10 03.79153522 54 34.987-07 37 10.13         18.6 rZET012L34
     K23T00D hC2023 10 03.79227922 54 33.864-07 39 28.22               VET012J95
     K23T00D KC2023 10 03.79861622 53 56.88 -07 40 08.4          17.9 GVET012L01
     K23T00D KC2023 10 03.79940522 53 52.95 -07 40 18.9          18.0 GVET012L01
     K23T00D KC2023 10 03.80019622 53 48.90 -07 40 29.2          17.9 GVET012L01
     K23T00D hC2023 10 03.80201422 53 39.83 -07 40 55.3          17.8 GVET012L01
     K23T00D hC2023 10 03.80274022 53 36.16 -07 41 04.7          18.0 GVET012L01
     K23T00D hC2023 10 03.80360022 53 31.83 -07 41 16.1          17.9 GVET012L01
     K23T00D hC2023 10 03.80432322 53 28.20 -07 41 25.9          18.1 GVET012L01
     K23T00D KB2023 10 03.80993 22 52 50.71 -07 42 55.0          18.3 GXET012M45
     K23T00D KB2023 10 03.81086 22 52 46.03 -07 43 07.8          18.2 GXET012M45
     K23T00D KB2023 10 03.81259 22 52 37.15 -07 43 32.0          18.1 GXET012M45
     K23T00D hC2023 10 03.82343822 51 58.728-07 46 36.73         18.5 GVET012J95
     K23T00D KC2023 10 03.83952522 50 31.66 -07 49 29.4          17.6 GVET012203
     K23T00D KC2023 10 03.84371922 50 06.26 -07 50 33.4          17.7 GXET012595
     K23T00D KC2023 10 03.84457822 50 05.41 -07 50 39.4          18.0 GVET012203
     K23T00D KC2023 10 03.84714322 49 48.39 -07 51 20.3          17.7 GXET012595
     K23T00D KC2023 10 03.85056422 49 30.51 -07 52 08.1          18.0 GXET012595
     K23T00D KC2023 10 03.85431722 49 11.376-07 51 30.46         19.3 rZET012L34
     K23T00D KC2023 10 03.85866222 48 50.620-07 53 39.95         17.6 GVET012K63
     K23T00D KC2023 10 03.86025622 48 42.159-07 54 02.85         18.0 GVET012K63
     K23T00D KC2023 10 03.86134622 48 36.393-07 54 17.26         17.8 GVET012K63
     K23T00D KC2023 10 03.86413422 48 21.706-07 54 56.39         17.8 GVET012K63
     K23T00D KC2023 10 03.86724022 48 05.167-07 55 39.31         18.1 GVET012K63
     K23T00D KC2023 10 03.87882522 47 02.90 -07 58 19.7          17.9 GVET012104
     K23T00D KC2023 10 03.88500922 46 29.63 -07 59 45.8          17.7 GVET012104
     K23T00D KC2023 10 03.88655622 46 21.30 -08 00 07.3          17.5 GVET012104
     K23T00D KB2023 10 03.90102222 45 12.04 -08 03 34.1          17.5 GVET012I93
     K23T00D KB2023 10 03.90273522 45 02.68 -08 03 58.6          18.1 GVET012I93
     K23T00D KB2023 10 03.90443522 44 53.40 -08 04 22.7          17.6 GVET012I93
     K23T00D KB2023 10 03.90611522 44 44.21 -08 04 46.1          17.8 GVET012I93
     K23T00D 7C2023 10 03.90904322 44 30.603-08 04 02.74         17.8 GXET012Z84
     K23T00D 7C2023 10 03.91000722 44 25.275-08 04 16.50         17.9 GXET012Z84
     K23T00D 7C2023 10 03.91095322 44 20.041-08 04 29.77         18.0 GXET012Z84
     K23T00D KC2023 10 03.94794322 40 52.10 -08 14 27.0          17.9 GXET012958
     K23T00D KC2023 10 03.95197322 40 29.26 -08 15 24.0          18.0 GXET012958
     K23T00D KC2023 10 03.97017222 38 31.478-08 18 20.05         18.3 rZET012L34
     K23T00D KB2023 10 04.00321522 36 13.316-08 10 42.52         18.7 VZET012Y05
     K23T00D KB2023 10 04.00531822 36 00.756-08 11 13.22               ZET012Y05
     K23T00D KC2023 10 04.05508622 31 39.92 -08 39 26.5          17.9 VuET012H21
     K23T00D KC2023 10 04.05632322 31 32.40 -08 39 45.3          17.6 VuET012H21
     K23T00D KC2023 10 04.05756022 31 24.89 -08 40 04.5          18.1 VuET012H21
     K23T00D KC2023 10 04.05879722 31 17.38 -08 40 23.6          18.1 VuET012H21
     K23T00D KC2023 10 04.06003422 31 09.84 -08 40 42.6          18.1 VuET012H21
     K23T00D KC2023 10 04.06127122 31 02.32 -08 41 01.3          17.9 VuET012H21

Observer details:
104 San Marcello Pistoiese.  Observers P. Bacci, M. Maestripieri.  Measurers
    P. Bacci, L. Tesi, G. Fagioli.  0.60-m F4 Reflector + CCD.
203 GiaGa Observatory.  Observers S. Foglia, G. Galli.  Measurer G. Galli.
    0.36-m f/5.76 Schmidt-Cassegrain + CCD.
595 Farra d'Isonzo.  Observers U. Montanar, E. Pettarin.  Measurer E.
    Pettarin.  0.61-m f/4.5 reflector + CCD.
703 Catalina Sky Survey.  Observer D. Rankin.  Measurers E. J. Christensen, D.
    Fay, J. B. Fazekas, D. C. Fuls, A. R. Gibbs, A. D. Grauer, H. Groeller, J.
    K. Hogan, R. A. Kowalski, S. M. Larson, G. J. Leonard, D. Rankin, R. L.
    Seaman, A. Serrano, F. C. Shelly, K. W. Wierzchos.  0.68-m Schmidt + 10K
    CCD.
958 Observatoire de Dax.  Observers P. Dupouy, J. B. de Vanssay.  Measurer P.
    Dupouy.  0.43-m f/2.7 Reflector + CCD.
G02 KYSUCE Observatory, Kysucke Nove Mesto.  Observer M. Urbanik.  0.40-m
    f/6.8 Corrected Dall-Kirkham + CCD.
H21 Astronomical Research Observatory, Westfield.  Observer R. Holmes.
    Measurers T. Linder, R. Holmes, L. Horn.  0.76-m f/3.0 astrograph + CCD.
I52 Steward Observatory, Mt. Lemmon Station.  Observer D. Rankin.  Measurers
    E. J. Christensen, D. Fay, J. B. Fazekas, D. C. Fuls, A. R. Gibbs, A. D.
    Grauer, H. Groeller, J. K. Hogan, R. A. Kowalski, S. M. Larson, G. J.
    Leonard, D. Rankin, R. L. Seaman, A. Serrano, F. C. Shelly, K. W.
    Wierzchos.  1.0-m prime focus + CCD.
I93 St Pardon de Conques.  Observer F. Losse.  0.40-m f/3.7 reflector + CMO.
J95 Great Shefford.  Observer P. Birtwhistle.  0.41-m f/6.3 Schmidt-Cassegrain
    + CCD.
K63 G. Pascoli Observatory, Castelvecchio Pascoli.  Observer R. Bacci.  0.41-m
    f/3.75 0.41m f/3.2  Newton + CCD.
L01 Visnjan Observatory, Tican.  Observers K. Korlevic.  Measurer K.
    Korlevic.  1.0-m f/2.9 reflector + CCD.
L34 Galhassin Robotic Telescope, Isnello.  Observer A. Nastasi.  0.40-m f/3.8
    400mm Reflector + CCD.
M45 Starhopper Observatory, Sfantu Gheorghe.  Observer F. Ursache.  0.41-m
    f/7.5 reflector + CMO.
Y05 SONEAR Wykrota-CEAMIG, Serra da Piedade.  Observer C. Jacques.  0.45-m
    f/2.9 reflector + CMO.
Z84 Calar Alto-Schmidt.  Observers F. Ocana, M. Micheli, R. Kresken, L.
    Conversi.  Measurers F. Ocana, M. Micheli.  0.8-m f/3 Schmidt + CCD.

Orbital elements:
2023 TD                                                  Earth MOID = 0.0011 AU
Epoch 2023 Sept. 13.0 TT = JDT 2460200.5                Veres                   
M 254.54391              (2000.0)            P               Q                  
n   1.04620607     Peri.  115.89657     -0.58419650     -0.81158006             
a   0.9610026      Node     9.85938     +0.72871695     -0.52842937             
e   0.2877537      Incl.    2.41963     +0.35733186     -0.24919914             
P   0.94           H   27.17          G   0.15           U   6                  
Residuals in seconds of arc
231003 703  0.4+  0.3+    231003 L01  0.3-  0.0     231003 I93  0.1+  0.0
231003 703  2.1+  0.2+    231003 L01  0.1-  0.1+    231003 I93  0.0   0.4-
231003 703  0.1+  0.4-    231003 M45  0.1-  0.0     231003 I93  0.1+  0.6-
231003 I52  0.1-  0.0     231003 M45  0.6+  0.2-    231003 I93  0.1+  0.3-
231003 I52  0.0   0.0     231003 M45  0.4-  0.9-    231003 Z84  0.5+  0.4-
231003 I52  0.0   0.3+    231003 J95  0.1-  0.5+    231003 Z84  0.5+  0.6-
231003 I52  0.2-  0.0     231003 203  0.3-  0.1+    231003 Z84  0.4+  0.5-
231003 I52  0.2+  0.1+    231003 595  0.2-  0.1-    231003 958  0.5-  0.2+
231003 I52  0.1-  0.0     231003 203  0.0   0.0     231003 958  1.2-  0.2+
231003 I52  0.3+  0.1+    231003 595  0.2-  0.2+    231003 L34  1.3+  0.7-
231003 I52  0.1-  0.0     231003 595  0.3+  0.4-    231004 Y05  0.6+  1.3-
231003 G02  0.7+  0.6+    231003 L34  0.6+  0.5+    231004 Y05  0.9+  1.7-
231003 G02  0.3+  0.1+    231003 K63  0.1-  0.2-    231004 H21  0.2+  0.3-
231003 L34  0.5-  0.8-    231003 K63  0.6-  1.0-    231004 H21  0.0   0.1-
231003 J95  0.3+  0.1-    231003 K63  0.5-  0.3-    231004 H21  0.0   0.3-
231003 L01  0.2+  0.3-    231003 K63  0.9+  0.8-    231004 H21  0.2+  0.3-
231003 L01  0.5+  0.1-    231003 K63  0.3+  0.6-    231004 H21  0.1+  0.3-
231003 L01  0.7-  0.4+    231003 104  0.4-  0.1-    231004 H21  0.4+  0.0
231003 L01  0.1+  0.8-    231003 104  0.1-  0.2-
231003 L01  0.2-  0.3-    231003 104  0.2+  0.2-

Ephemeris:
2023 TD                  a,e,i = 0.96, 0.29, 2                   q = 0.6845
Date    TT    R. A. (2000) Decl.     Delta      r    Elong.  Phase     V
2023 09 04    01 24 27.7 +00 58 21   0.1529  1.1308   140.4    34.6    24.8
...
2023 09 19    01 23 48.8 +00 42 47   0.07639 1.0744   154.8    23.5    22.8
...
2023 09 27    01 07 28.5 -00 20 18   0.03859 1.0400   166.1    13.4    21.0
...
2023 10 03    23 41 35.4 -05 06 23   0.01205 1.0124   164.3    15.5    18.5
2023 10 04    22 36 24.7 -08 13 15   0.0084661.0077   147.4    32.3    18.2
2023 10 05    20 25 15.0 -12 13 18   0.0063601.0029   114.3    65.4    18.5
...
2023 10 11    14 33 41.6 -04 28 04   0.02728 0.9735    22.7   156.7    29.2
...
2023 10 19    14 02 22.8 -02 56 47   0.06453 0.9328    10.0   169.3
...
2023 11 03    13 49 52.5 -03 09 20   0.1436  0.8546    15.3   162.1    34.4

M. P. C. Staff               (C) Copyright 2023 MPC           M.P.E.C. 2023-T12





More information about the Iaude mailing list